#datetime,building,power
2023-06-08T00:00:00,axn,25.10
2023-06-08T00:01:00,axn,25.29
2023-06-08T00:02:00,axn,25.25
2023-06-08T00:03:00,axn,25.63
2023-06-08T00:04:00,axn,25.18
2023-06-08T00:05:00,axn,25.08
2023-06-08T00:06:00,axn,25.07
2023-06-08T00:07:00,axn,24.98
2023-06-08T00:08:00,axn,25.05
2023-06-08T00:09:00,axn,25.16
2023-06-08T00:10:00,axn,25.07
2023-06-08T00:11:00,axn,25.03
2023-06-08T00:12:00,axn,24.96
2023-06-08T00:13:00,axn,24.97
2023-06-08T00:14:00,axn,24.85
2023-06-08T00:15:00,axn,24.76
2023-06-08T00:16:00,axn,24.87
2023-06-08T00:17:00,axn,24.87
2023-06-08T00:18:00,axn,24.80
2023-06-08T00:19:00,axn,24.87
2023-06-08T00:20:00,axn,24.87
2023-06-08T00:21:00,axn,24.99
2023-06-08T00:22:00,axn,24.97
2023-06-08T00:23:00,axn,24.97
2023-06-08T00:24:00,axn,24.85
2023-06-08T00:25:00,axn,24.82
2023-06-08T00:26:00,axn,24.85
2023-06-08T00:27:00,axn,25.04
2023-06-08T00:28:00,axn,25.08
2023-06-08T00:29:00,axn,25.17
2023-06-08T00:30:00,axn,24.97
2023-06-08T00:31:00,axn,25.38
2023-06-08T00:32:00,axn,24.54
2023-06-08T00:33:00,axn,24.46
2023-06-08T00:34:00,axn,24.39
2023-06-08T00:35:00,axn,24.68
2023-06-08T00:36:00,axn,24.75
2023-06-08T00:37:00,axn,27.43
2023-06-08T00:38:00,axn,27.23
2023-06-08T00:39:00,axn,30.31
2023-06-08T00:40:00,axn,27.61
2023-06-08T00:41:00,axn,30.61
2023-06-08T00:42:00,axn,30.62
2023-06-08T00:43:00,axn,31.03
2023-06-08T00:44:00,axn,25.09
2023-06-08T00:45:00,axn,25.28
2023-06-08T00:46:00,axn,24.90
2023-06-08T00:47:00,axn,24.91
2023-06-08T00:48:00,axn,24.95
2023-06-08T00:49:00,axn,24.86
2023-06-08T00:50:00,axn,24.88
2023-06-08T00:51:00,axn,24.95
2023-06-08T00:52:00,axn,24.90
2023-06-08T00:53:00,axn,24.75
2023-06-08T00:54:00,axn,25.54
2023-06-08T00:55:00,axn,24.87
2023-06-08T00:56:00,axn,24.93
2023-06-08T00:57:00,axn,25.00
2023-06-08T00:58:00,axn,24.37
2023-06-08T00:59:00,axn,24.62
2023-06-08T01:00:00,axn,24.37
2023-06-08T01:01:00,axn,24.45
2023-06-08T01:02:00,axn,24.72
2023-06-08T01:03:00,axn,24.73
2023-06-08T01:04:00,axn,24.50
2023-06-08T01:05:00,axn,24.78
2023-06-08T01:06:00,axn,24.36
2023-06-08T01:07:00,axn,24.50
2023-06-08T01:08:00,axn,24.31
2023-06-08T01:09:00,axn,24.40
2023-06-08T01:10:00,axn,24.29
2023-06-08T01:11:00,axn,24.00
2023-06-08T01:12:00,axn,24.02
2023-06-08T01:13:00,axn,23.89
2023-06-08T01:14:00,axn,24.62
2023-06-08T01:15:00,axn,24.95
2023-06-08T01:16:00,axn,24.69
2023-06-08T01:17:00,axn,24.68
2023-06-08T01:18:00,axn,24.78
2023-06-08T01:19:00,axn,24.81
2023-06-08T01:20:00,axn,24.63
2023-06-08T01:21:00,axn,24.57
2023-06-08T01:22:00,axn,24.52
2023-06-08T01:23:00,axn,24.49
2023-06-08T01:24:00,axn,24.54
2023-06-08T01:25:00,axn,24.55
2023-06-08T01:26:00,axn,24.56
2023-06-08T01:27:00,axn,24.74
2023-06-08T01:28:00,axn,24.75
2023-06-08T01:29:00,axn,24.66
2023-06-08T01:30:00,axn,24.84
2023-06-08T01:31:00,axn,24.72
2023-06-08T01:32:00,axn,24.72
2023-06-08T01:33:00,axn,24.74
2023-06-08T01:34:00,axn,25.02
2023-06-08T01:35:00,axn,24.32
2023-06-08T01:36:00,axn,24.40
2023-06-08T01:37:00,axn,24.44
2023-06-08T01:38:00,axn,24.40
2023-06-08T01:39:00,axn,24.42
2023-06-08T01:40:00,axn,24.20
2023-06-08T01:41:00,axn,24.06
2023-06-08T01:42:00,axn,24.27
2023-06-08T01:43:00,axn,24.00
2023-06-08T01:44:00,axn,24.00
2023-06-08T01:45:00,axn,24.19
2023-06-08T01:46:00,axn,24.19
2023-06-08T01:47:00,axn,24.38
2023-06-08T01:48:00,axn,24.33
2023-06-08T01:49:00,axn,24.04
2023-06-08T01:50:00,axn,24.12
2023-06-08T01:51:00,axn,24.21
2023-06-08T01:52:00,axn,24.34
2023-06-08T01:53:00,axn,24.11
2023-06-08T01:54:00,axn,24.22
2023-06-08T01:55:00,axn,24.21
2023-06-08T01:56:00,axn,24.36
2023-06-08T01:57:00,axn,24.35
2023-06-08T01:58:00,axn,24.26
2023-06-08T01:59:00,axn,24.20
2023-06-08T02:00:00,axn,24.31
2023-06-08T02:01:00,axn,24.33
2023-06-08T02:02:00,axn,24.26
2023-06-08T02:03:00,axn,24.24
2023-06-08T02:04:00,axn,24.68
2023-06-08T02:05:00,axn,24.39
2023-06-08T02:06:00,axn,24.42
2023-06-08T02:07:00,axn,24.83
2023-06-08T02:08:00,axn,34.78
2023-06-08T02:09:00,axn,34.65
2023-06-08T02:10:00,axn,34.77
2023-06-08T02:11:00,axn,34.88
2023-06-08T02:12:00,axn,24.56
2023-06-08T02:13:00,axn,24.45
2023-06-08T02:14:00,axn,24.54
2023-06-08T02:15:00,axn,24.48
2023-06-08T02:16:00,axn,24.53
2023-06-08T02:17:00,axn,24.70
2023-06-08T02:18:00,axn,24.60
2023-06-08T02:19:00,axn,24.64
2023-06-08T02:20:00,axn,24.49
2023-06-08T02:21:00,axn,24.48
2023-06-08T02:22:00,axn,24.56
2023-06-08T02:23:00,axn,24.50
2023-06-08T02:24:00,axn,24.38
2023-06-08T02:25:00,axn,24.47
2023-06-08T02:26:00,axn,24.34
2023-06-08T02:27:00,axn,24.51
2023-06-08T02:28:00,axn,24.50
2023-06-08T02:29:00,axn,24.40
2023-06-08T02:30:00,axn,24.45
2023-06-08T02:31:00,axn,24.47
2023-06-08T02:32:00,axn,24.40
2023-06-08T02:33:00,axn,24.95
2023-06-08T02:34:00,axn,24.71
2023-06-08T02:35:00,axn,24.86
2023-06-08T02:36:00,axn,24.52
2023-06-08T02:37:00,axn,24.47
2023-06-08T02:38:00,axn,24.47
2023-06-08T02:39:00,axn,24.42
2023-06-08T02:40:00,axn,24.40
2023-06-08T02:41:00,axn,24.48
2023-06-08T02:42:00,axn,24.39
2023-06-08T02:43:00,axn,24.30
2023-06-08T02:44:00,axn,24.30
2023-06-08T02:45:00,axn,24.41
2023-06-08T02:46:00,axn,24.46
2023-06-08T02:47:00,axn,24.41
2023-06-08T02:48:00,axn,24.33
2023-06-08T02:49:00,axn,24.54
2023-06-08T02:50:00,axn,24.56
2023-06-08T02:51:00,axn,24.48
2023-06-08T02:52:00,axn,24.62
2023-06-08T02:53:00,axn,24.53
2023-06-08T02:54:00,axn,24.50
2023-06-08T02:55:00,axn,25.43
2023-06-08T02:56:00,axn,24.79
2023-06-08T02:57:00,axn,24.71
2023-06-08T02:58:00,axn,24.65
2023-06-08T02:59:00,axn,24.83
2023-06-08T03:00:00,axn,24.68
2023-06-08T03:01:00,axn,24.65
2023-06-08T03:02:00,axn,24.71
2023-06-08T03:03:00,axn,24.63
2023-06-08T03:04:00,axn,24.87
2023-06-08T03:05:00,axn,24.80
2023-06-08T03:06:00,axn,24.68
2023-06-08T03:07:00,axn,24.55
2023-06-08T03:08:00,axn,24.61
2023-06-08T03:09:00,axn,24.80
2023-06-08T03:10:00,axn,24.64
2023-06-08T03:11:00,axn,24.76
2023-06-08T03:12:00,axn,24.66
2023-06-08T03:13:00,axn,24.54
2023-06-08T03:14:00,axn,24.41
2023-06-08T03:15:00,axn,24.43
2023-06-08T03:16:00,axn,24.54
2023-06-08T03:17:00,axn,24.99
2023-06-08T03:18:00,axn,24.64
2023-06-08T03:19:00,axn,24.63
2023-06-08T03:20:00,axn,24.99
2023-06-08T03:21:00,axn,24.79
2023-06-08T03:22:00,axn,24.84
2023-06-08T03:23:00,axn,24.91
2023-06-08T03:24:00,axn,24.79
2023-06-08T03:25:00,axn,24.72
2023-06-08T03:26:00,axn,24.83
2023-06-08T03:27:00,axn,25.24
2023-06-08T03:28:00,axn,25.14
2023-06-08T03:29:00,axn,24.56
2023-06-08T03:30:00,axn,24.18
2023-06-08T03:31:00,axn,25.10
2023-06-08T03:32:00,axn,24.05
2023-06-08T03:33:00,axn,24.38
2023-06-08T03:34:00,axn,24.12
2023-06-08T03:35:00,axn,24.27
2023-06-08T03:36:00,axn,24.55
2023-06-08T03:37:00,axn,24.35
2023-06-08T03:38:00,axn,24.70
2023-06-08T03:39:00,axn,24.67
2023-06-08T03:40:00,axn,24.76
2023-06-08T03:41:00,axn,24.35
2023-06-08T03:42:00,axn,24.64
2023-06-08T03:43:00,axn,24.34
2023-06-08T03:44:00,axn,24.39
2023-06-08T03:45:00,axn,24.42
2023-06-08T03:46:00,axn,24.43
2023-06-08T03:47:00,axn,24.71
2023-06-08T03:48:00,axn,24.74
2023-06-08T03:49:00,axn,24.35
2023-06-08T03:50:00,axn,24.46
2023-06-08T03:51:00,axn,24.32
2023-06-08T03:52:00,axn,24.23
2023-06-08T03:53:00,axn,24.44
2023-06-08T03:54:00,axn,24.34
2023-06-08T03:55:00,axn,24.39
2023-06-08T03:56:00,axn,24.58
2023-06-08T03:57:00,axn,24.57
2023-06-08T03:58:00,axn,24.33
2023-06-08T03:59:00,axn,27.17
2023-06-08T04:00:00,axn,27.16
2023-06-08T04:01:00,axn,27.07
2023-06-08T04:02:00,axn,24.50
2023-06-08T04:03:00,axn,24.45
2023-06-08T04:04:00,axn,24.60
2023-06-08T04:05:00,axn,24.36
2023-06-08T04:06:00,axn,24.44
2023-06-08T04:07:00,axn,24.10
2023-06-08T04:08:00,axn,24.38
2023-06-08T04:09:00,axn,24.07
2023-06-08T04:10:00,axn,24.04
2023-06-08T04:11:00,axn,24.19
2023-06-08T04:12:00,axn,24.05
2023-06-08T04:13:00,axn,24.08
2023-06-08T04:14:00,axn,24.10
2023-06-08T04:15:00,axn,24.29
2023-06-08T04:16:00,axn,24.20
2023-06-08T04:17:00,axn,23.95
2023-06-08T04:18:00,axn,23.98
2023-06-08T04:19:00,axn,23.82
2023-06-08T04:20:00,axn,23.87
2023-06-08T04:21:00,axn,23.97
2023-06-08T04:22:00,axn,23.91
2023-06-08T04:23:00,axn,23.82
2023-06-08T04:24:00,axn,23.93
2023-06-08T04:25:00,axn,23.95
2023-06-08T04:26:00,axn,24.42
2023-06-08T04:27:00,axn,24.09
2023-06-08T04:28:00,axn,24.14
2023-06-08T04:29:00,axn,24.09
2023-06-08T04:30:00,axn,24.09
2023-06-08T04:31:00,axn,24.02
2023-06-08T04:32:00,axn,38.56
2023-06-08T04:33:00,axn,39.25
2023-06-08T04:34:00,axn,38.22
2023-06-08T04:35:00,axn,38.06
2023-06-08T04:36:00,axn,38.25
2023-06-08T04:37:00,axn,23.91
2023-06-08T04:38:00,axn,23.46
2023-06-08T04:39:00,axn,23.69
2023-06-08T04:40:00,axn,23.45
2023-06-08T04:41:00,axn,23.49
2023-06-08T04:42:00,axn,23.61
2023-06-08T04:43:00,axn,23.52
2023-06-08T04:44:00,axn,23.51
2023-06-08T04:45:00,axn,23.54
2023-06-08T04:46:00,axn,23.53
2023-06-08T04:47:00,axn,23.74
2023-06-08T04:48:00,axn,23.33
2023-06-08T04:49:00,axn,23.32
2023-06-08T04:50:00,axn,23.31
2023-06-08T04:51:00,axn,23.30
2023-06-08T04:52:00,axn,23.32
2023-06-08T04:53:00,axn,23.34
2023-06-08T04:54:00,axn,23.26
2023-06-08T04:55:00,axn,23.40
2023-06-08T04:56:00,axn,23.44
2023-06-08T04:57:00,axn,23.44
2023-06-08T04:58:00,axn,23.41
2023-06-08T04:59:00,axn,23.50
2023-06-08T05:00:00,axn,23.47
2023-06-08T05:01:00,axn,23.49
2023-06-08T05:02:00,axn,23.71
2023-06-08T05:03:00,axn,23.46
2023-06-08T05:04:00,axn,23.49
2023-06-08T05:05:00,axn,23.89
2023-06-08T05:06:00,axn,23.73
2023-06-08T05:07:00,axn,23.98
2023-06-08T05:08:00,axn,24.00
2023-06-08T05:09:00,axn,23.40
2023-06-08T05:10:00,axn,23.41
2023-06-08T05:11:00,axn,23.60
2023-06-08T05:12:00,axn,26.46
2023-06-08T05:13:00,axn,26.51
2023-06-08T05:14:00,axn,23.36
2023-06-08T05:15:00,axn,23.41
2023-06-08T05:16:00,axn,23.56
2023-06-08T05:17:00,axn,23.73
2023-06-08T05:18:00,axn,23.40
2023-06-08T05:19:00,axn,29.18
2023-06-08T05:20:00,axn,29.13
2023-06-08T05:21:00,axn,29.06
2023-06-08T05:22:00,axn,29.26
2023-06-08T05:23:00,axn,48.95
2023-06-08T05:24:00,axn,29.02
2023-06-08T05:25:00,axn,29.05
2023-06-08T05:26:00,axn,28.94
2023-06-08T05:27:00,axn,28.96
2023-06-08T05:28:00,axn,28.86
2023-06-08T05:29:00,axn,28.87
2023-06-08T05:30:00,axn,28.77
2023-06-08T05:31:00,axn,31.66
2023-06-08T05:32:00,axn,31.88
2023-06-08T05:33:00,axn,26.14
2023-06-08T05:34:00,axn,25.97
2023-06-08T05:35:00,axn,26.03
2023-06-08T05:36:00,axn,26.10
2023-06-08T05:37:00,axn,25.82
2023-06-08T05:38:00,axn,25.71
2023-06-08T05:39:00,axn,25.74
2023-06-08T05:40:00,axn,25.73
2023-06-08T05:41:00,axn,25.80
2023-06-08T05:42:00,axn,25.71
2023-06-08T05:43:00,axn,25.75
2023-06-08T05:44:00,axn,25.61
2023-06-08T05:45:00,axn,25.69
2023-06-08T05:46:00,axn,25.39
2023-06-08T05:47:00,axn,25.39
2023-06-08T05:48:00,axn,25.56
2023-06-08T05:49:00,axn,25.45
2023-06-08T05:50:00,axn,25.33
2023-06-08T05:51:00,axn,25.33
2023-06-08T05:52:00,axn,25.34
2023-06-08T05:53:00,axn,25.68
2023-06-08T05:54:00,axn,25.55
2023-06-08T05:55:00,axn,25.70
2023-06-08T05:56:00,axn,25.87
2023-06-08T05:57:00,axn,25.90
2023-06-08T05:58:00,axn,25.68
2023-06-08T05:59:00,axn,25.72
2023-06-08T06:00:00,axn,25.69
2023-06-08T06:01:00,axn,25.79
2023-06-08T06:02:00,axn,25.63
2023-06-08T06:03:00,axn,25.56
2023-06-08T06:04:00,axn,25.55
2023-06-08T06:05:00,axn,25.54
2023-06-08T06:06:00,axn,25.38
2023-06-08T06:07:00,axn,25.27
2023-06-08T06:08:00,axn,25.50
2023-06-08T06:09:00,axn,25.39
2023-06-08T06:10:00,axn,25.33
2023-06-08T06:11:00,axn,25.20
2023-06-08T06:12:00,axn,25.51
2023-06-08T06:13:00,axn,25.02
2023-06-08T06:14:00,axn,25.03
2023-06-08T06:15:00,axn,25.21
2023-06-08T06:16:00,axn,25.12
2023-06-08T06:17:00,axn,24.92
2023-06-08T06:18:00,axn,24.86
2023-06-08T06:19:00,axn,24.82
2023-06-08T06:20:00,axn,24.79
2023-06-08T06:21:00,axn,24.90
2023-06-08T06:22:00,axn,24.69
2023-06-08T06:23:00,axn,24.93
2023-06-08T06:24:00,axn,24.53
2023-06-08T06:25:00,axn,24.53
2023-06-08T06:26:00,axn,24.93
2023-06-08T06:27:00,axn,24.56
2023-06-08T06:28:00,axn,24.60
2023-06-08T06:29:00,axn,24.58
2023-06-08T06:30:00,axn,24.65
2023-06-08T06:31:00,axn,24.72
2023-06-08T06:32:00,axn,24.41
2023-06-08T06:33:00,axn,24.26
2023-06-08T06:34:00,axn,24.38
2023-06-08T06:35:00,axn,24.97
2023-06-08T06:36:00,axn,25.10
2023-06-08T06:37:00,axn,24.96
2023-06-08T06:38:00,axn,24.76
2023-06-08T06:39:00,axn,24.89
2023-06-08T06:40:00,axn,24.87
2023-06-08T06:41:00,axn,25.00
2023-06-08T06:42:00,axn,24.95
2023-06-08T06:43:00,axn,25.00
2023-06-08T06:44:00,axn,24.80
2023-06-08T06:45:00,axn,25.05
2023-06-08T06:46:00,axn,24.78
2023-06-08T06:47:00,axn,25.18
2023-06-08T06:48:00,axn,25.53
2023-06-08T06:49:00,axn,25.48
2023-06-08T06:50:00,axn,37.55
2023-06-08T06:51:00,axn,25.65
2023-06-08T06:52:00,axn,26.12
2023-06-08T06:53:00,axn,25.52
2023-06-08T06:54:00,axn,25.33
2023-06-08T06:55:00,axn,25.58
2023-06-08T06:56:00,axn,25.60
2023-06-08T06:57:00,axn,25.67
2023-06-08T06:58:00,axn,25.72
2023-06-08T06:59:00,axn,25.94
2023-06-08T07:00:00,axn,26.08
2023-06-08T07:01:00,axn,28.94
2023-06-08T07:02:00,axn,31.88
2023-06-08T07:03:00,axn,31.64
2023-06-08T07:04:00,axn,31.47
2023-06-08T07:05:00,axn,32.31
2023-06-08T07:06:00,axn,32.75
2023-06-08T07:07:00,axn,32.07
2023-06-08T07:08:00,axn,31.90
2023-06-08T07:09:00,axn,32.02
2023-06-08T07:10:00,axn,31.77
2023-06-08T07:11:00,axn,31.60
2023-06-08T07:12:00,axn,31.75
2023-06-08T07:13:00,axn,31.67
2023-06-08T07:14:00,axn,31.50
2023-06-08T07:15:00,axn,31.40
2023-06-08T07:16:00,axn,31.34
2023-06-08T07:17:00,axn,31.23
2023-06-08T07:18:00,axn,31.22
2023-06-08T07:19:00,axn,31.62
2023-06-08T07:20:00,axn,31.42
2023-06-08T07:21:00,axn,34.01
2023-06-08T07:22:00,axn,34.63
2023-06-08T07:23:00,axn,34.79
2023-06-08T07:24:00,axn,31.49
2023-06-08T07:25:00,axn,31.35
2023-06-08T07:26:00,axn,31.21
2023-06-08T07:27:00,axn,31.23
2023-06-08T07:28:00,axn,31.26
2023-06-08T07:29:00,axn,31.07
2023-06-08T07:30:00,axn,31.30
2023-06-08T07:31:00,axn,31.01
2023-06-08T07:32:00,axn,31.51
2023-06-08T07:33:00,axn,31.19
2023-06-08T07:34:00,axn,31.37
2023-06-08T07:35:00,axn,31.13
2023-06-08T07:36:00,axn,30.75
2023-06-08T07:37:00,axn,30.83
2023-06-08T07:38:00,axn,30.83
2023-06-08T07:39:00,axn,47.37
2023-06-08T07:40:00,axn,30.83
2023-06-08T07:41:00,axn,30.73
2023-06-08T07:42:00,axn,30.38
2023-06-08T07:43:00,axn,30.72
2023-06-08T07:44:00,axn,30.74
2023-06-08T07:45:00,axn,30.95
2023-06-08T07:46:00,axn,30.59
2023-06-08T07:47:00,axn,30.62
2023-06-08T07:48:00,axn,30.55
2023-06-08T07:49:00,axn,30.67
2023-06-08T07:50:00,axn,30.73
2023-06-08T07:51:00,axn,30.77
2023-06-08T07:52:00,axn,35.08
2023-06-08T07:53:00,axn,35.18
2023-06-08T07:54:00,axn,33.52
2023-06-08T07:55:00,axn,30.60
2023-06-08T07:56:00,axn,30.94
2023-06-08T07:57:00,axn,30.75
2023-06-08T07:58:00,axn,30.65
2023-06-08T07:59:00,axn,30.67
2023-06-08T08:00:00,axn,30.81
2023-06-08T08:01:00,axn,30.72
2023-06-08T08:02:00,axn,34.37
2023-06-08T08:03:00,axn,34.34
2023-06-08T08:04:00,axn,34.51
2023-06-08T08:05:00,axn,34.43
2023-06-08T08:06:00,axn,34.29
2023-06-08T08:07:00,axn,34.22
2023-06-08T08:08:00,axn,34.50
2023-06-08T08:09:00,axn,34.36
2023-06-08T08:10:00,axn,34.35
2023-06-08T08:11:00,axn,34.37
2023-06-08T08:12:00,axn,34.60
2023-06-08T08:13:00,axn,34.33
2023-06-08T08:14:00,axn,34.20
2023-06-08T08:15:00,axn,34.40
2023-06-08T08:16:00,axn,34.05
2023-06-08T08:17:00,axn,34.06
2023-06-08T08:18:00,axn,34.51
2023-06-08T08:19:00,axn,34.62
2023-06-08T08:20:00,axn,34.56
2023-06-08T08:21:00,axn,34.28
2023-06-08T08:22:00,axn,34.23
2023-06-08T08:23:00,axn,34.38
2023-06-08T08:24:00,axn,34.70
2023-06-08T08:25:00,axn,34.74
2023-06-08T08:26:00,axn,34.82
2023-06-08T08:27:00,axn,34.63
2023-06-08T08:28:00,axn,34.50
2023-06-08T08:29:00,axn,34.51
2023-06-08T08:30:00,axn,35.09
2023-06-08T08:31:00,axn,34.69
2023-06-08T08:32:00,axn,34.63
2023-06-08T08:33:00,axn,34.74
2023-06-08T08:34:00,axn,44.86
2023-06-08T08:35:00,axn,44.56
2023-06-08T08:36:00,axn,44.30
2023-06-08T08:37:00,axn,44.20
2023-06-08T08:38:00,axn,34.20
2023-06-08T08:39:00,axn,34.35
2023-06-08T08:40:00,axn,34.76
2023-06-08T08:41:00,axn,34.50
2023-06-08T08:42:00,axn,34.56
2023-06-08T08:43:00,axn,34.55
2023-06-08T08:44:00,axn,34.40
2023-06-08T08:45:00,axn,34.49
2023-06-08T08:46:00,axn,34.45
2023-06-08T08:47:00,axn,34.49
2023-06-08T08:48:00,axn,34.40
2023-06-08T08:49:00,axn,34.71
2023-06-08T08:50:00,axn,35.12
2023-06-08T08:51:00,axn,35.08
2023-06-08T08:52:00,axn,34.93
2023-06-08T08:53:00,axn,34.81
2023-06-08T08:54:00,axn,35.01
2023-06-08T08:55:00,axn,35.02
2023-06-08T08:56:00,axn,35.11
2023-06-08T08:57:00,axn,34.93
2023-06-08T08:58:00,axn,35.22
2023-06-08T08:59:00,axn,34.88
2023-06-08T09:00:00,axn,34.86
2023-06-08T09:01:00,axn,35.07
2023-06-08T09:02:00,axn,34.88
2023-06-08T09:03:00,axn,34.78
2023-06-08T09:04:00,axn,35.17
2023-06-08T09:05:00,axn,34.27
2023-06-08T09:06:00,axn,34.91
2023-06-08T09:07:00,axn,34.57
2023-06-08T09:08:00,axn,34.88
2023-06-08T09:09:00,axn,35.15
2023-06-08T09:10:00,axn,34.68
2023-06-08T09:11:00,axn,34.19
2023-06-08T09:12:00,axn,33.98
2023-06-08T09:13:00,axn,34.29
2023-06-08T09:14:00,axn,34.59
2023-06-08T09:15:00,axn,34.80
2023-06-08T09:16:00,axn,34.72
2023-06-08T09:17:00,axn,34.51
2023-06-08T09:18:00,axn,34.22
2023-06-08T09:19:00,axn,34.72
2023-06-08T09:20:00,axn,34.26
2023-06-08T09:21:00,axn,34.35
2023-06-08T09:22:00,axn,34.41
2023-06-08T09:23:00,axn,34.37
2023-06-08T09:24:00,axn,34.41
2023-06-08T09:25:00,axn,34.83
2023-06-08T09:26:00,axn,34.58
2023-06-08T09:27:00,axn,34.56
2023-06-08T09:28:00,axn,34.57
2023-06-08T09:29:00,axn,34.26
2023-06-08T09:30:00,axn,34.45
2023-06-08T09:31:00,axn,34.70
2023-06-08T09:32:00,axn,34.54
2023-06-08T09:33:00,axn,34.50
2023-06-08T09:34:00,axn,34.51
2023-06-08T09:35:00,axn,33.70
2023-06-08T09:36:00,axn,34.12
2023-06-08T09:37:00,axn,34.15
2023-06-08T09:38:00,axn,34.09
2023-06-08T09:39:00,axn,34.48
2023-06-08T09:40:00,axn,34.65
2023-06-08T09:41:00,axn,34.58
2023-06-08T09:42:00,axn,34.53
2023-06-08T09:43:00,axn,34.22
2023-06-08T09:44:00,axn,37.12
2023-06-08T09:45:00,axn,37.21
2023-06-08T09:46:00,axn,34.35
2023-06-08T09:47:00,axn,34.50
2023-06-08T09:48:00,axn,34.70
2023-06-08T09:49:00,axn,34.91
2023-06-08T09:50:00,axn,40.50
2023-06-08T09:51:00,axn,39.72
2023-06-08T09:52:00,axn,39.49
2023-06-08T09:53:00,axn,33.80
2023-06-08T09:54:00,axn,34.08
2023-06-08T09:55:00,axn,34.21
2023-06-08T09:56:00,axn,34.11
2023-06-08T09:57:00,axn,34.14
2023-06-08T09:58:00,axn,34.10
2023-06-08T09:59:00,axn,34.15
2023-06-08T10:00:00,axn,34.13
2023-06-08T10:01:00,axn,34.18
2023-06-08T10:02:00,axn,34.31
2023-06-08T10:03:00,axn,34.32
2023-06-08T10:04:00,axn,49.24
2023-06-08T10:05:00,axn,48.41
2023-06-08T10:06:00,axn,48.37
2023-06-08T10:07:00,axn,48.39
2023-06-08T10:08:00,axn,48.49
2023-06-08T10:09:00,axn,48.26
2023-06-08T10:10:00,axn,48.38
2023-06-08T10:11:00,axn,34.55
2023-06-08T10:12:00,axn,34.49
2023-06-08T10:13:00,axn,34.58
2023-06-08T10:14:00,axn,34.84
2023-06-08T10:15:00,axn,34.94
2023-06-08T10:16:00,axn,35.70
2023-06-08T10:17:00,axn,35.41
2023-06-08T10:18:00,axn,35.21
2023-06-08T10:19:00,axn,34.96
2023-06-08T10:20:00,axn,35.18
2023-06-08T10:21:00,axn,35.48
2023-06-08T10:22:00,axn,35.10
2023-06-08T10:23:00,axn,35.20
2023-06-08T10:24:00,axn,35.05
2023-06-08T10:25:00,axn,34.94
2023-06-08T10:26:00,axn,35.03
2023-06-08T10:27:00,axn,35.12
2023-06-08T10:28:00,axn,34.91
2023-06-08T10:29:00,axn,34.98
2023-06-08T10:30:00,axn,35.13
2023-06-08T10:31:00,axn,35.04
2023-06-08T10:32:00,axn,35.31
2023-06-08T10:33:00,axn,35.43
2023-06-08T10:34:00,axn,35.55
2023-06-08T10:35:00,axn,35.13
2023-06-08T10:36:00,axn,35.06
2023-06-08T10:37:00,axn,35.03
2023-06-08T10:38:00,axn,35.15
2023-06-08T10:39:00,axn,35.40
2023-06-08T10:40:00,axn,35.48
2023-06-08T10:41:00,axn,35.82
2023-06-08T10:42:00,axn,35.26
2023-06-08T10:43:00,axn,34.96
2023-06-08T10:44:00,axn,35.40
2023-06-08T10:45:00,axn,35.19
2023-06-08T10:46:00,axn,35.29
2023-06-08T10:47:00,axn,37.94
2023-06-08T10:48:00,axn,37.90
2023-06-08T10:49:00,axn,37.88
2023-06-08T10:50:00,axn,35.53
2023-06-08T10:51:00,axn,35.21
2023-06-08T10:52:00,axn,35.06
2023-06-08T10:53:00,axn,35.25
2023-06-08T10:54:00,axn,35.25
2023-06-08T10:55:00,axn,35.29
2023-06-08T10:56:00,axn,35.68
2023-06-08T10:57:00,axn,35.00
2023-06-08T10:58:00,axn,35.30
2023-06-08T10:59:00,axn,34.83
2023-06-08T11:00:00,axn,34.86
2023-06-08T11:01:00,axn,34.72
2023-06-08T11:02:00,axn,34.99
2023-06-08T11:03:00,axn,35.05
2023-06-08T11:04:00,axn,34.89
2023-06-08T11:05:00,axn,34.80
2023-06-08T11:06:00,axn,34.88
2023-06-08T11:07:00,axn,34.80
2023-06-08T11:08:00,axn,34.91
2023-06-08T11:09:00,axn,34.91
2023-06-08T11:10:00,axn,34.69
2023-06-08T11:11:00,axn,34.55
2023-06-08T11:12:00,axn,34.59
2023-06-08T11:13:00,axn,34.45
2023-06-08T11:14:00,axn,34.76
2023-06-08T11:15:00,axn,34.77
2023-06-08T11:16:00,axn,34.61
2023-06-08T11:17:00,axn,34.84
2023-06-08T11:18:00,axn,35.09
2023-06-08T11:19:00,axn,34.71
2023-06-08T11:20:00,axn,34.86
2023-06-08T11:21:00,axn,34.71
2023-06-08T11:22:00,axn,34.83
2023-06-08T11:23:00,axn,34.62
2023-06-08T11:24:00,axn,34.59
2023-06-08T11:25:00,axn,34.71
2023-06-08T11:26:00,axn,34.65
2023-06-08T11:27:00,axn,34.83
2023-06-08T11:28:00,axn,35.36
2023-06-08T11:29:00,axn,34.95
2023-06-08T11:30:00,axn,35.20
2023-06-08T11:31:00,axn,35.01
2023-06-08T11:32:00,axn,34.86
2023-06-08T11:33:00,axn,34.81
2023-06-08T11:34:00,axn,34.38
2023-06-08T11:35:00,axn,34.37
2023-06-08T11:36:00,axn,34.78
2023-06-08T11:37:00,axn,34.54
2023-06-08T11:38:00,axn,34.42
2023-06-08T11:39:00,axn,34.69
2023-06-08T11:40:00,axn,34.77
2023-06-08T11:41:00,axn,34.84
2023-06-08T11:42:00,axn,34.60
2023-06-08T11:43:00,axn,34.64
2023-06-08T11:44:00,axn,34.49
2023-06-08T11:45:00,axn,34.54
2023-06-08T11:46:00,axn,34.59
2023-06-08T11:47:00,axn,34.47
2023-06-08T11:48:00,axn,34.60
2023-06-08T11:49:00,axn,34.59
2023-06-08T11:50:00,axn,35.00
2023-06-08T11:51:00,axn,35.23
2023-06-08T11:52:00,axn,35.70
2023-06-08T11:53:00,axn,35.09
2023-06-08T11:54:00,axn,34.88
2023-06-08T11:55:00,axn,35.16
2023-06-08T11:56:00,axn,34.82
2023-06-08T11:57:00,axn,35.51
2023-06-08T11:58:00,axn,35.24
2023-06-08T11:59:00,axn,35.44
2023-06-08T12:00:00,axn,35.59
2023-06-08T12:01:00,axn,35.50
2023-06-08T12:02:00,axn,35.66
2023-06-08T12:03:00,axn,36.70
2023-06-08T12:04:00,axn,36.34
2023-06-08T12:05:00,axn,35.74
2023-06-08T12:06:00,axn,36.43
2023-06-08T12:07:00,axn,35.92
2023-06-08T12:08:00,axn,36.20
2023-06-08T12:09:00,axn,35.93
2023-06-08T12:10:00,axn,35.73
2023-06-08T12:11:00,axn,35.76
2023-06-08T12:12:00,axn,35.69
2023-06-08T12:13:00,axn,35.75
2023-06-08T12:14:00,axn,35.71
2023-06-08T12:15:00,axn,36.07
2023-06-08T12:16:00,axn,35.80
2023-06-08T12:17:00,axn,35.78
2023-06-08T12:18:00,axn,35.67
2023-06-08T12:19:00,axn,35.67
2023-06-08T12:20:00,axn,36.03
2023-06-08T12:21:00,axn,36.45
2023-06-08T12:22:00,axn,35.74
2023-06-08T12:23:00,axn,35.21
2023-06-08T12:24:00,axn,35.93
2023-06-08T12:25:00,axn,35.45
2023-06-08T12:26:00,axn,35.14
2023-06-08T12:27:00,axn,34.44
2023-06-08T12:28:00,axn,34.58
2023-06-08T12:29:00,axn,34.45
2023-06-08T12:30:00,axn,35.17
2023-06-08T12:31:00,axn,34.84
2023-06-08T12:32:00,axn,34.55
2023-06-08T12:33:00,axn,34.10
2023-06-08T12:34:00,axn,34.23
2023-06-08T12:35:00,axn,34.22
2023-06-08T12:36:00,axn,34.06
2023-06-08T12:37:00,axn,34.05
2023-06-08T12:38:00,axn,34.09
2023-06-08T12:39:00,axn,34.76
2023-06-08T12:40:00,axn,34.67
2023-06-08T12:41:00,axn,34.81
2023-06-08T12:42:00,axn,34.73
2023-06-08T12:43:00,axn,34.40
2023-06-08T12:44:00,axn,34.47
2023-06-08T12:45:00,axn,34.54
2023-06-08T12:46:00,axn,34.31
2023-06-08T12:47:00,axn,34.20
2023-06-08T12:48:00,axn,34.23
2023-06-08T12:49:00,axn,34.23
2023-06-08T12:50:00,axn,34.05
2023-06-08T12:51:00,axn,34.52
2023-06-08T12:52:00,axn,34.56
2023-06-08T12:53:00,axn,34.87
2023-06-08T12:54:00,axn,34.28
2023-06-08T12:55:00,axn,34.25
2023-06-08T12:56:00,axn,34.72
2023-06-08T12:57:00,axn,34.47
2023-06-08T12:58:00,axn,34.38
2023-06-08T12:59:00,axn,34.52
2023-06-08T13:00:00,axn,34.54
2023-06-08T13:01:00,axn,34.09
2023-06-08T13:02:00,axn,34.21
2023-06-08T13:03:00,axn,34.03
2023-06-08T13:04:00,axn,33.97
2023-06-08T13:05:00,axn,33.89
2023-06-08T13:06:00,axn,33.90
2023-06-08T13:07:00,axn,33.72
2023-06-08T13:08:00,axn,34.21
2023-06-08T13:09:00,axn,33.84
2023-06-08T13:10:00,axn,34.15
2023-06-08T13:11:00,axn,34.06
2023-06-08T13:12:00,axn,33.86
2023-06-08T13:13:00,axn,33.79
2023-06-08T13:14:00,axn,33.86
2023-06-08T13:15:00,axn,44.08
2023-06-08T13:16:00,axn,44.11
2023-06-08T13:17:00,axn,43.84
2023-06-08T13:18:00,axn,43.82